Regional Weather Roundup
Issued by NWS

Home | Current Version | Previous Version | Graphics & Text | Print | Product List | Glossary On
Versions: 1 2 3 4 5 6 7 8 9 10 11 12 13 14 15 16 17 18 19 20 21 22 23 24 25 26 27 28 29 30 31 32 33 34 35 36 37 38 39 40 41 42 43 44 45 46 47 48 49 50
000
ASUS43 KOAX 230902
RWRNE

WEATHER ROUNDUP FOR NEBRASKA
NATIONAL WEATHER SERVICE OMAHA NE
400 AM CDT THU MAR 23 2017

NOTES: SATELLITE DATA IS BEING USED TO AUGMENT CLOUD COVER ABOVE
       12000 FEET.
       "FAIR" INDICATES FEW OR NO CLOUDS BELOW 12,000 FEET WITH NO
       SIGNIFICANT WEATHER AND/OR OBSTRUCTIONS TO VISIBILITY.

  * THESE STATIONS DO NOT REPORT WEATHER SUCH AS RAIN...SNOW OR FOG.

NEZ001>004-019>022-054>056-231000-
NEBRASKA PANHANDLE

CITY           SKY/WX    TMP DP  RH WIND       PRES   REMARKS
SCOTTSBLUFF    CLOUDY    45  35  68 E13       29.73F
ALLIANCE       CLOUDY    41  33  73 SE17      29.74F
CHADRON        PTCLDY    47  35  63 SW12      29.70F
KIMBALL        CLOUDY    42  38  87 SE5       29.73F
SIDNEY         CLOUDY    37  32  82 SE9       29.74F WCI  30
$$

NEZ057>060-069>072-079>082-231000-
SOUTHWEST NEBRASKA

CITY           SKY/WX    TMP DP  RH WIND       PRES   REMARKS
NORTH PLATTE   CLOUDY    45  36  70 SE14      29.84F
IMPERIAL       CLOUDY    40  36  86 SE12      29.79F WCI  33
LEXINGTON      CLOUDY    43  31  62 SE9       29.89F
MCCOOK         CLOUDY    43  36  76 SE10      29.85F
OGALLALA       CLOUDY    40  35  81 E7        29.81F
$$

NEZ005>010-023>029-035>040-094-231000-
NORTH CENTRAL NEBRASKA

CITY           SKY/WX    TMP DP  RH WIND       PRES   REMARKS
VALENTINE      CLOUDY    43  31  62 S17       29.81F
AINSWORTH      CLOUDY    43  34  71 S17       29.83F
BROKEN BOW     CLOUDY    43  30  60 S17G24    29.89F
O`NEILL        CLEAR     44  30  58 S15       29.90F
ORD            MOCLDY    44  27  51 SE9       29.91F
THEDFORD       PTCLDY    43  35  72 S8        29.85F
$$

NEZ041-046>049-061>064-073>077-083>087-231000-
SOUTH CENTRAL NEBRASKA

CITY           SKY/WX    TMP DP  RH WIND       PRES   REMARKS
GRAND ISLAND   PTCLDY    47  30  51 SE10      29.96F
AURORA         CLOUDY    48  30  48 SE14      29.97F
HASTINGS       CLOUDY    48  29  47 SE16      29.95F
HEBRON         CLOUDY    49  32  51 SE12      29.99F
HOLDREGE       MOCLDY    45  32  61 SE16      29.90F
KEARNEY *      PTCLDY    45  28  53 SE12      29.93F
YORK           CLOUDY    48  28  46 SE10      29.99F
$$

NEZ011>018-030>034-042>045-231000-
NORTHEAST NEBRASKA

CITY           SKY/WX    TMP DP  RH WIND       PRES   REMARKS
NORFOLK        CLOUDY    45  27  49 SE15      29.98F
ALBION         PTCLDY    47  28  47 S13       29.97F
BLAIR          CLOUDY    45  24  44 SE13      30.05F
FREMONT        CLOUDY    45  26  47 SE9       30.05F
TEKAMAH        CLOUDY    44  24  45 SE15      30.07F
WAYNE          CLOUDY    42  29  60 SE13      30.00F
$$

NEZ050>053-065>068-078-088>093-231000-
SOUTHEAST NEBRASKA

CITY           SKY/WX    TMP DP  RH WIND       PRES   REMARKS
LINCOLN        MOCLDY    48  27  44 SE10      30.04F
OMAHA EPPLEY   CLOUDY    46  21  37 SE16      30.08F
BEATRICE       CLOUDY    51  32  48 SE15G21   30.01F
FALLS CITY     CLOUDY    50  30  46 SE13      30.08F
NEBRASKA CITY  CLOUDY    47  16  29 SE13      30.07F
PLATTSMOUTH    CLOUDY    46  18  32 SE14      30.06F
$$

NEZ044-045-051>053-067-231000-
OMAHA AREA

CITY           SKY/WX    TMP DP  RH WIND       PRES   REMARKS
OMAHA EPPLEY   CLOUDY    46  21  37 SE16      30.08F
BLAIR          CLOUDY    45  24  44 SE13      30.05F
FREMONT        CLOUDY    45  26  47 SE9       30.05F
MILLARD        CLOUDY    47  27  44 SE8       30.07F
OFFUTT AFB     CLOUDY    45  22  39 E14       30.07F
PLATTSMOUTH    CLOUDY    46  18  32 SE14      30.06F
WAHOO          CLOUDY    46  25  43 SE14      30.05F
$$




USA.gov is the U.S. government's official web portal to all federal, state and local government web resources and services.